Location: Bunkers Corners
(41.0828°N, 81.3471°W)
Time: 12:28:10
(UTC+00:00)

Daily predictions for brighter satellites

Satellite Brightness Start Highest point End
(mag) Time Altitude Azimuth Time Altitude Azimuth Time Altitude Azimuth
Cosmos 1703 3.2 12:01:50 10° NNW 12:05:43 71° W 12:09:34 10° S
ERS-2 4.2 12:04:59 10° WSW 12:05:55 11° W 12:06:51 10° WNW
GPS 2-04 Rocket1 4.2 12:02:30 10° WSW 12:06:09 30° SSW 12:09:47 10° SE
Cosmos 540 Rocket 3.5 12:02:20 10° SW 12:07:19 55° WNW 12:12:23 10° N
SJ 16-02 3.1 12:05:10 10° WNW 12:07:27 14° W 12:09:45 10° SW
Meteor 1-16 Rocket 4.4 12:01:45 10° SSW 12:07:30 60° WNW 12:13:22 10° N
Okean 1-7 Rocket 4.5 12:05:12 10° NNW 12:09:07 29° W 12:13:01 10° SSW
ATLAS CENTAUR R/B 3.8 12:06:50 10° S 12:09:56 25° ESE 12:12:59 10° ENE
Cosmos 921 Rocket 4.1 12:07:33 10° WSW 12:10:59 23° WNW 12:14:24 10° N
Spot 2 4.4 12:08:26 10° N 12:12:12 37° WNW 12:15:55 10° SW
Cosmos 1544 Rocket 4.4 12:11:05 10° SW 12:14:46 27° WNW 12:18:28 10° NNW
Cosmos 1400 Rocket 3.0 12:12:09 10° SSW 12:16:07 54° WNW 12:20:09 10° N
Cosmos 1898 Rocket 4.3 12:13:26 10° NW 12:17:57 31° W 12:22:27 10° SSW
Cosmos 1461 3.7 12:14:56 10° WSW 12:19:18 38° NW 12:23:47 10° NNE
Cosmos 1570 Rocket 4.1 12:15:36 10° SW 12:20:42 55° WNW 12:25:52 10° N
Cosmos 2098 Rocket 4.2 12:14:12 10° N 12:20:52 74° E 12:26:13 10° SSE
CZ-2C R/B 4.1 22:47:44 10° ESE 22:51:57 25° ENE 22:56:20 10° N
MOS 1 Rocket 4.3 22:54:05 10° NE 22:57:29 22° E 23:00:50 10° SE
Cosmos 1315 Rocket 3.5 22:54:57 10° N 22:58:32 32° ENE 23:02:07 10° SE
Cosmos 2228 3.7 22:56:33 10° NNE 23:00:25 33° ENE 23:04:16 10° SE
ATLAS 5 CENTAUR R/B 1.3 22:56:36 10° SSW 23:00:29 73° ESE 23:04:48 10° NE
SMAP 3.3 22:56:47 10° S 23:01:26 80° WSW 23:06:07 10° NNW
ATLAS 3B R/B 2.8 22:54:48 10° NNW 23:01:46 67° NE 23:09:00 10° SE
Cosmos 1300 3.2 23:01:07 10° N 23:04:41 37° ENE 23:08:15 10° SSE
Cosmos 1503 Rocket 4.1 23:01:49 10° SSW 23:07:10 89° E 23:12:35 10° NNE
GENESIS II 4.3 23:03:13 10° SSW 23:07:11 65° ESE 23:11:09 10° NE
BREEZE-M DEB (TANK) 4.0 23:06:20 10° WNW 23:08:07 16° NNW 23:09:39 10° NNE
H-2A R/B 3.1 23:08:14 10° ESE 23:11:54 21° ENE 23:15:38 10° NNE
NOAA 11 4.3 23:08:03 10° SSE 23:13:34 85° WSW 23:19:06 10° NNW
Cosmos 1908 4.5 23:09:57 10° NNW 23:13:39 45° W 23:17:20 10° SSW
Feng Yun 1-1 Rocket 4.3 23:08:31 10° SE 23:13:42 51° ENE 23:19:00 10° N
Cosmos 2263 Rocket 2.3 23:08:40 10° SSW 23:14:21 88° WNW 23:20:04 10° NNE
Helios 1A Rocket 4.3 23:15:43 10° ESE 23:18:31 18° ENE 23:21:19 10° NNE
SL-16 R/B 4.4 23:15:38 10° NW 23:20:31 30° WSW 23:25:24 10° SSW
Meteor 1-24 Rocket 3.6 23:15:43 10° S 23:21:04 69° E 23:26:22 10° NNE
X-37B 2.9 23:22:10 10° SSE 23:23:36 12° SE 23:24:48 11° ESE
Cosmos 1726 Rocket 3.9 23:20:23 10° N 23:24:32 43° ENE 23:28:42 10° SSE
CZ-4B R/B 1.4 23:27:00 10° NNE 23:30:25 87° WNW 23:33:44 10° SSW
DELTA 2 R/B (1) 4.0 23:25:11 10° W 23:30:39 60° SSW 23:36:06 10° ESE
Okean-O 3.3 23:27:38 10° SE 23:31:35 33° ENE 23:35:33 10° N
Lacrosse 5 3.4 23:29:57 10° NNW 23:33:35 19° NNE 23:35:21 16° NE
ERS-2 2.3 23:30:33 10° NNE 23:34:05 48° ESE 23:37:36 10° S
Cosmos 1943 3.1 23:28:42 10° NNW 23:34:24 80° ENE 23:40:03 10° SSE
RESURS DK-1 3.9 23:30:51 10° SW 23:34:39 35° WNW 23:38:28 10° N
ARGOS 4.0 23:32:42 10° ESE 23:37:08 27° ENE 23:41:35 10° N
TELKOM 3 4.4 23:35:11 10° SSW 23:37:13 24° SE 23:37:30 24° SE
COSMO-SKYMED 1 2.5 23:33:36 10° NNE 23:37:58 89° E 23:42:18 10° SSW
Okean O Rocket 3.1 23:35:22 10° S 23:39:33 40° W 23:43:45 10° NNW
Cosmos 773 Rocket 3.9 23:34:41 10° NNW 23:39:49 62° ENE 23:44:53 10° SSE
CZ-2D R/B 3.2 23:43:48 10° SSE 23:47:39 87° WSW 23:51:32 10° NNW
CZ-2C R/B 3.7 23:47:38 23° ENE 23:48:48 25° E 23:53:20 10° SSE
Cosmos 2279 Rocket 4.0 23:45:05 10° N 23:51:23 85° W 23:57:38 10° S
